This is the latest recevied weather packets stored in our database for station/object DO6DD-13. If no packets are shown the sender has not sent any weather packets the latest 10 day(s).
| Time | Temp. | Humidity | Pressure | Rain* | Wind** | Luminosity | Snow |
|---|---|---|---|---|---|---|---|
| 1777890622 | 18.33° C | 70% | 1013.7 hPa | - | - | 248 W/m² | - |
| 1777890022 | 17.78° C | 70% | 1013.7 hPa | - | - | 150 W/m² | - |
| 1777889421 | 17.78° C | 70% | 1013.7 hPa | - | - | 156 W/m² | - |
| 1777888821 | 17.78° C | 71% | 1013.7 hPa | - | - | 136 W/m² | - |
| 1777888220 | 17.78° C | 72% | 1013.8 hPa | - | - | 130 W/m² | - |
| 1777887620 | 17.22° C | 72% | 1013.9 hPa | - | - | 158 W/m² | - |
| 1777887019 | 17.22° C | 74% | 1013.9 hPa | - | - | 138 W/m² | - |
| 1777886419 | 17.22° C | 74% | 1013.9 hPa | - | - | 154 W/m² | - |
| 1777885818 | 16.67° C | 75% | 1013.9 hPa | - | - | 134 W/m² | - |
| 1777885218 | 16.67° C | 77% | 1013.9 hPa | - | - | 126 W/m² | - |
| 1777884617 | 16.11° C | 78% | 1013.8 hPa | - | - | 112 W/m² | - |
| 1777884027 | 16.11° C | 78% | 1013.8 hPa | - | - | 84 W/m² | - |
| 1777883416 | 16.11° C | 78% | 1013.8 hPa | - | - | 92 W/m² | - |
| 1777882826 | 16.11° C | 78% | 1013.8 hPa | - | - | 122 W/m² | - |
| 1777882226 | 16.11° C | 79% | 1013.9 hPa | - | - | 136 W/m² | - |
| 1777881625 | 15.56° C | 80% | 1013.8 hPa | - | - | 148 W/m² | - |
| 1777881025 | 15.56° C | 81% | 1013.8 hPa | - | - | 108 W/m² | - |
| 1777880424 | 15.56° C | 82% | 1013.7 hPa | - | - | 74 W/m² | - |
| 1777879824 | 15° C | 82% | 1013.7 hPa | - | - | 74 W/m² | - |
| 1777879223 | 15° C | 82% | 1013.7 hPa | - | - | 74 W/m² | - |
| 1777878623 | 15.56° C | 81% | 1013.7 hPa | - | - | 70 W/m² | - |
| 1777878032 | 15.56° C | 81% | 1013.6 hPa | - | - | 56 W/m² | - |
| 1777877422 | 15.56° C | 82% | 1013.6 hPa | - | - | 44 W/m² | - |
| 1777876821 | 15° C | 83% | 1013.5 hPa | - | - | 38 W/m² | - |
| 1777876221 | 15° C | 83% | 1013.4 hPa | - | - | 46 W/m² | - |
* Rain since midnight (hover to see other rain measurements)
** Current wind speed in m/s (hover to see current wind gust speed)